[[{"header":{"parameterUnit":"m.s-1","parameterCategory":1,"la1":30.2991,"la2":30.254,"lo1":-89.0895,"lo2":-89.0444,"dy":0.0017,"dx":0.0017,"nx":28,"ny":28,"refTime":"2024-04-01T03:00:00:Z","depth":0,"parameterNumber":2,"parameterNumberName":"U-component_of_WINDS"},"data":[0,0,0,0,0,0,0,0,0,0,0,0,0,0,0,0,0,0,0,0,0,0,0,0,0,0,0,0,0,0,0,0,0,0,0,0,0,0,0,0,0,0,0,0,0,0,0,0,0,0,0,0,0,0,0,0,0,0,-1.8388,-1.8389,0,-1.8464,-1.8465,-1.8466,-1.8473,-1.8472,-1.8471,-1.847,-1.855,-1.8553,-1.8555,0,0,0,0,0,0,0,0,0,0,0,0,0,-1.825,-1.8253,-1.8388,-1.8389,-1.839,-1.8464,-1.8465,-1.8466,-1.8473,-1.8472,-1.8471,-1.847,-1.8549,-1.8552,-1.8556,0,0,0,0,0,0,0,0,0,0,0,0,0,-1.8317,-1.8253,-1.8388,-1.8402,-1.8404,-1.8464,-1.8465,-1.8467,-1.8473,-1.8472,-1.847,-1.8469,-1.8548,-1.8552,-1.8556,-1.8608,0,0,-1.8569,-1.8571,0,0,0,0,0,0,0,0,-1.8313,-1.8322,-1.8399,-1.8401,-1.8404,-1.8458,-1.8446,-1.8514,-1.8473,-1.8447,-1.847,-1.8469,-1.852,-1.8527,-1.8544,-1.8611,-1.8615,-1.857,-1.8572,-1.8574,-1.8575,0,0,0,0,0,0,0,-1.8308,-1.8318,-1.8418,-1.84,-1.8403,-1.8405,-1.8413,-1.8459,-1.849,-1.8449,-1.845,-1.8459,-1.8521,-1.854,-1.8546,-1.8616,-1.857,-1.8573,-1.8576,-1.8578,-1.8731,-1.8732,0,0,0,0,0,0,-1.8301,-1.8315,-1.8416,-1.8421,-1.8354,-1.8409,-1.8418,-1.8442,-1.8489,-1.8495,-1.846,-1.8459,-1.8533,-1.8541,-1.8549,-1.8613,-1.8574,-1.8578,-1.8581,-1.873,-1.8731,-1.8733,0,0,0,0,0,0,-1.8298,-1.831,-1.8413,-1.8368,-1.8381,-1.8413,-1.8439,-1.8444,-1.8462,-1.8497,-1.8503,-1.8472,-1.8532,-1.8542,-1.8593,-1.8615,-1.858,-1.8584,-1.8728,-1.873,-1.8732,-1.8741,0,0,0,0,0,0,-1.8294,-1.8308,-1.8328,-1.8368,-1.8383,-1.8455,-1.844,-1.8446,-1.8469,-1.8469,-1.8511,-1.8516,-1.8532,-1.8587,-1.8597,-1.8621,-1.8588,-1.8726,-1.8729,-1.8731,-1.8738,-1.8743,-1.8747,0,0,0,0,0,-1.8289,-1.8327,-1.8329,-1.8341,-1.8408,-1.8457,-1.8465,-1.8482,-1.8471,-1.8491,-1.8514,-1.8515,-1.8611,-1.8592,-1.8604,-1.8629,-1.8725,-1.8728,-1.8731,-1.8737,-1.8742,-1.8746,0,0,0,0,0,0,-1.8289,-1.8333,-1.8335,-1.8387,-1.8418,-1.8457,-1.8483,-1.8487,-1.8522,-1.852,-1.854,-1.8549,-1.8599,-1.8619,-1.8597,-1.8682,-1.8667,-1.8673,-1.8667,-1.8672,-1.8676,-1.867,-1.8591,0,0,0,0,0,-1.8295,-1.833,-1.8367,-1.841,-1.8425,-1.8451,-1.8473,-1.8483,-1.8516,-1.8529,-1.8556,-1.8588,-1.8626,-1.865,-1.8687,-1.8742,-1.8751,-1.8765,-1.8769,-1.8772,-1.8777,-1.8808,-1.8815,-1.8744,-1.8744,-1.8744,0,0,-1.8308,-1.8336,-1.8357,-1.841,-1.8435,-1.8472,-1.8462,-1.8501,-1.8529,-1.8536,-1.8585,-1.8606,-1.8643,-1.8696,-1.8721,-1.8715,-1.8799,-1.8776,-1.8779,-1.8782,-1.8813,-1.8819,-1.8825,-1.8746,-1.8746,-1.8745,0,0,-1.835,-1.8375,-1.8414,-1.8439,-1.8477,-1.8495,-1.8504,-1.8543,-1.8557,-1.8607,-1.8613,-1.8647,-1.8711,-1.8738,-1.876,-1.8814,-1.8817,-1.8825,-1.8846,-1.8877,-1.8882,-1.8887,-1.8907,-1.8914,-1.883,-1.883,-1.883,0,-1.8362,-1.8416,-1.8433,-1.8472,-1.8496,-1.8504,-1.8544,-1.8568,-1.8616,-1.8632,-1.8624,-1.8706,-1.8732,-1.8792,-1.8805,-1.8822,-1.8834,-1.882,-1.888,-1.8885,-1.889,-1.8909,-1.8917,-1.8831,-1.8831,-1.8831,-1.8831,0,-1.8429,-1.8467,-1.8494,-1.854,-1.8567,-1.8606,-1.863,-1.8655,-1.8663,-1.8682,-1.8733,-1.8765,-1.8808,-1.8823,-1.8832,-1.8885,-1.888,-1.8876,-1.8861,-1.8898,-1.8916,-1.8923,-1.8832,-1.8832,-1.8831,-1.8831,0,0,-1.8473,-1.8528,-1.8538,-1.8559,-1.8602,-1.8633,-1.8673,-1.8715,-1.8737,-1.877,-1.8805,-1.886,-1.8856,-1.8881,-1.8893,-1.892,-1.8961,-1.8913,-1.8914,-1.8921,-1.9023,-1.9026,-1.9034,-1.8964,-1.8965,-1.8966,-1.902,0,-1.852,-1.8591,-1.8608,-1.8669,-1.8705,-1.8714,-1.8749,-1.878,-1.8799,-1.8832,-1.8854,-1.8892,-1.8885,-1.89,-1.8927,-1.8951,-1.8982,-1.8947,-1.8997,-1.8998,-1.8987,-1.9043,-1.9046,-1.9095,-1.9027,-1.9028,-1.9029,0,-1.8585,-1.8619,-1.8684,-1.8723,-1.8739,-1.877,-1.8811,-1.8843,-1.8878,-1.889,-1.8919,-1.8928,-1.8972,-1.8955,-1.9015,-1.8991,-1.9013,-1.9028,-1.903,-1.9035,-1.9016,-1.905,-1.9111,-1.9118,-1.904,-1.904,-1.9039,0,-1.861,-1.8673,-1.872,-1.8739,-1.8785,-1.8807,-1.8828,-1.8862,-1.8887,-1.8923,-1.8939,-1.898,-1.9002,-1.9034,-1.9054,-1.904,-1.9113,-1.9098,-1.9125,-1.9125,-1.914,-1.9139,-1.9205,-1.9154,-1.9154,-1.9153,-1.9153,0,-1.8662,-1.8701,-1.8733,-1.8762,-1.8806,-1.8826,-1.887,-1.8891,-1.8922,-1.8956,-1.8966,-1.8998,-1.9023,-1.9058,-1.9075,-1.9123,-1.9133,-1.9144,-1.9148,-1.9143,-1.9142,-1.9158,-1.9155,-1.9155,-1.9155,-1.9155,-1.9154,0,-1.8698,-1.8721,-1.8773,-1.8813,-1.8824,-1.8855,-1.889,-1.8919,-1.8939,-1.8982,-1.8993,-1.9024,-1.9066,-1.909,-1.9143,-1.9155,-1.9208,-1.921,-1.9196,-1.9198,-1.9223,-1.9221,-1.9302,-1.9314,-1.9255,-1.9255,-1.9256,0,-1.8729,-1.876,-1.8803,-1.8826,-1.8847,-1.8885,-1.891,-1.8931,-1.8957,-1.9,-1.9024,-1.9067,-1.9103,-1.917,-1.9198,-1.9239,-1.9243,-1.9269,-1.9249,-1.9243,-1.9244,-1.9241,-1.9245,-1.9272,-1.9272,-1.9273,-1.9273,0,-1.8782,-1.8792,-1.8828,-1.8868,-1.8897,-1.893,-1.8962,-1.8981,-1.9008,-1.9037,-1.908,-1.9107,-1.9162,-1.9205,-1.9248,-1.9271,-1.9277,-1.9279,-1.9288,-1.9283,-1.9274,-1.9279,-1.9205,-1.9277,-1.9277,-1.9276,-1.9276,-1.9276,-1.8817,-1.8845,-1.888,-1.892,-1.8946,-1.8977,-1.9006,-1.9029,-1.9066,-1.9111,-1.9122,-1.9168,-1.9204,-1.9263,-1.9287,-1.9323,-1.9319,-1.9331,-1.9334,-1.9337,-1.9338,-1.9268,-1.9331,-1.9331,-1.9331,-1.9331,-1.9331,0,-1.8871,-1.8894,-1.8931,-1.8976,-1.9007,-1.901,-1.9046,-1.9072,-1.9112,-1.9145,-1.918,-1.923,-1.9272,-1.9303,-1.9347,-1.937,-1.9374,-1.9381,-1.9379,-1.9384,-1.9339,-1.9328,-1.9377,-1.9377,-1.9377,-1.9377,-1.9377,-1.9377,-1.8903,-1.895,-1.8965,-1.9026,-1.9049,-1.9093,-1.9114,-1.9142,-1.9169,-1.9224,-1.9259,-1.9279,-1.9312,-1.9357,-1.9396,-1.9405,-1.942,-1.9427,-1.9435,-1.9392,-1.9387,-1.9383,-1.9372,-1.943,-1.943,-1.9477,-1.9478,-1.9478]},{"header":{"parameterUnit":"m.s-1","parameterCategory":1,"la1":30.2991,"la2":30.254,"lo1":-89.0895,"lo2":-89.0444,"dy":0.0017,"dx":0.0017,"nx":28,"ny":28,"refTime":"2024-04-01T03:00:00:Z","depth":0,"parameterNumber":3,"parameterNumberName":"V-component_of_WINDS"},"data":[0,0,0,0,0,0,0,0,0,0,0,0,0,0,0,0,0,0,0,0,0,0,0,0,0,0,0,0,0,0,0,0,0,0,0,0,0,0,0,0,0,0,0,0,0,0,0,0,0,0,0,0,0,0,0,0,0,0,2.9988,2.9988,0,2.9966,2.9965,2.9965,2.9956,2.9956,2.9956,2.9956,2.993,2.993,2.9929,0,0,0,0,0,0,0,0,0,0,0,0,0,3.0021,3.002,2.9988,2.9988,2.9987,2.9966,2.9965,2.9965,2.9956,2.9956,2.9956,2.9956,2.9931,2.993,2.9929,0,0,0,0,0,0,0,0,0,0,0,0,0,3.0003,3.002,2.9988,2.998,2.9979,2.9966,2.9965,2.9965,2.9955,2.9956,2.9956,2.9956,2.9931,2.993,2.9929,2.9921,0,0,2.9926,2.9925,0,0,0,0,0,0,0,0,3.0004,3.0002,2.9981,2.9981,2.9979,2.9963,2.9968,2.995,2.9955,2.9964,2.9956,2.9956,2.9941,2.9939,2.9935,2.992,2.9919,2.9925,2.9925,2.9924,2.9924,0,0,0,0,0,0,0,3.0006,3.0003,2.9979,2.9981,2.998,2.9977,2.9975,2.9964,2.9953,2.9964,2.9963,2.9961,2.9941,2.9936,2.9934,2.9918,2.9925,2.9925,2.9924,2.9923,2.9897,2.9897,0,0,0,0,0,0,3.0008,3.0004,2.998,2.9978,2.9992,2.9977,2.9974,2.9969,2.9953,2.995,2.996,2.996,2.9938,2.9935,2.9933,2.9924,2.9924,2.9923,2.9923,2.9897,2.9897,2.9897,0,0,0,0,0,0,3.0009,3.0006,2.9981,2.9991,2.9988,2.9976,2.997,2.9968,2.9963,2.995,2.9948,2.9958,2.9938,2.9935,2.9925,2.9923,2.9923,2.9922,2.9897,2.9897,2.9897,2.9905,0,0,0,0,0,0,3.001,3.0007,3.0004,2.9991,2.9987,2.9973,2.997,2.9968,2.9962,2.9961,2.9947,2.9945,2.9938,2.9926,2.9924,2.9922,2.9921,2.9898,2.9897,2.9897,2.9905,2.9905,2.9906,0,0,0,0,0,3.0011,3.0006,3.0004,3.0001,2.9983,2.9973,2.997,2.9962,2.9962,2.9959,2.9951,2.9946,2.9924,2.9925,2.9922,2.992,2.9898,2.9897,2.9897,2.9905,2.9905,2.9906,0,0,0,0,0,0,3.0017,3.0004,3.0001,2.9992,2.9984,2.9971,2.9967,2.9963,2.9954,2.9954,2.9943,2.994,2.9931,2.9924,2.9926,2.9912,2.991,2.991,2.9917,2.9918,2.9918,2.992,2.992,0,0,0,0,0,3.0018,3.0011,2.9999,2.9992,2.9988,2.9978,2.9973,2.9968,2.9959,2.9955,2.9946,2.9937,2.9928,2.9922,2.9913,2.9904,2.9901,2.9901,2.9902,2.9902,2.9901,2.9897,2.9897,2.9897,2.9897,2.9897,0,0,3.0018,3.001,3.0006,2.9993,2.9986,2.9979,2.9975,2.9967,2.9962,2.9953,2.9944,2.9937,2.9926,2.9917,2.9912,2.9911,2.9901,2.9902,2.9902,2.9901,2.9897,2.9897,2.9897,2.9897,2.9897,2.9897,0,0,3.0015,3.0008,3.0002,2.9996,2.9986,2.998,2.9978,2.9967,2.9962,2.9953,2.9947,2.994,2.9925,2.9918,2.9912,2.9908,2.9904,2.9906,2.9908,2.9904,2.9904,2.9904,2.9904,2.9903,2.9905,2.9905,2.9905,0,3.0017,3.0006,2.9999,2.9992,2.9987,2.9981,2.9974,2.9968,2.9955,2.9952,2.9951,2.9933,2.9925,2.9915,2.9914,2.9909,2.9908,2.9907,2.9905,2.9904,2.9904,2.9904,2.9904,2.9906,2.9906,2.9906,2.9906,0,3.0009,3.0002,2.9998,2.9988,2.9982,2.9975,2.9967,2.9962,2.9958,2.9952,2.9943,2.9934,2.9923,2.9921,2.9915,2.991,2.991,2.9907,2.9904,2.9905,2.9904,2.9904,2.9906,2.9906,2.9906,2.9906,0,0,3.0008,2.9996,2.9994,2.999,2.9979,2.9974,2.9967,2.9958,2.9955,2.9946,2.9941,2.9929,2.9927,2.9921,2.9915,2.9912,2.9911,2.9909,2.9909,2.9911,2.9906,2.9908,2.9908,2.9908,2.9908,2.9908,2.9907,0,3.0005,2.9994,2.9988,2.9979,2.9973,2.9968,2.9962,2.9955,2.9949,2.9943,2.9937,2.9929,2.9926,2.9923,2.9919,2.9912,2.991,2.9912,2.9903,2.9903,2.9907,2.9908,2.991,2.991,2.9907,2.9906,2.9906,0,2.9999,2.9992,2.9983,2.9975,2.9972,2.9967,2.996,2.9954,2.9946,2.9942,2.9936,2.9931,2.9924,2.9923,2.9914,2.9915,2.9911,2.9908,2.9907,2.9906,2.9905,2.9907,2.9909,2.9909,2.9906,2.9906,2.9906,0,3.0,2.9989,2.9983,2.9979,2.9969,2.9966,2.9962,2.9954,2.9949,2.9942,2.994,2.9932,2.9927,2.9921,2.9914,2.9914,2.9906,2.9904,2.9903,2.9903,2.9902,2.9902,2.9903,2.9898,2.9898,2.9898,2.9898,0,2.9997,2.9992,2.9984,2.998,2.9975,2.9968,2.9963,2.9957,2.9951,2.9946,2.994,2.9936,2.9927,2.9921,2.9915,2.9909,2.9907,2.9904,2.9903,2.9905,2.9905,2.9902,2.9902,2.9898,2.9898,2.9898,2.9898,0,2.9998,2.9992,2.9985,2.9977,2.9974,2.9971,2.9963,2.996,2.9954,2.9948,2.9947,2.9938,2.9932,2.9924,2.9914,2.9911,2.9905,2.9903,2.9908,2.9908,2.9908,2.9908,2.9907,2.9907,2.9902,2.9902,2.9902,0,2.9996,2.9993,2.9984,2.9981,2.9977,2.9972,2.9968,2.9962,2.9958,2.9949,2.9947,2.994,2.9934,2.9924,2.9917,2.991,2.9907,2.9908,2.9906,2.9909,2.9908,2.9909,2.9909,2.9908,2.9908,2.9908,2.9908,0,2.9995,2.9992,2.9987,2.9982,2.9977,2.9972,2.9967,2.9964,2.9957,2.9953,2.9947,2.9942,2.9934,2.9927,2.9919,2.9914,2.991,2.9909,2.9909,2.9911,2.9915,2.9913,2.991,2.9909,2.9909,2.9909,2.9909,2.9909,2.9995,2.9992,2.9986,2.9981,2.9976,2.9972,2.9968,2.9964,2.9959,2.9952,2.9948,2.9942,2.9935,2.9925,2.9921,2.9916,2.9914,2.9914,2.9913,2.9914,2.9915,2.9915,2.9914,2.9914,2.9914,2.9914,2.9914,0,2.9993,2.999,2.9985,2.9979,2.9975,2.9972,2.9967,2.9963,2.9959,2.9953,2.9948,2.9942,2.9936,2.9929,2.9923,2.992,2.9919,2.9919,2.9919,2.9918,2.9916,2.9917,2.9921,2.9921,2.9921,2.9921,2.9921,2.9921,2.9992,2.9987,2.9985,2.9978,2.9974,2.9969,2.9967,2.9963,2.9959,2.9952,2.9947,2.9943,2.9938,2.9931,2.9926,2.9924,2.9922,2.9924,2.9921,2.9919,2.9918,2.9918,2.9919,2.9923,2.9923,2.9925,2.9925,2.9925]}]]